Location: Zagreb
(45.8000°N, 16.0000°E)
Time: 14:54:20
(UTC+02:00)

Transit 2A Rocket - Pass Details

Date: 11 August 2022
Orbit: 593 x 907 km, 66.7° (Epoch: 25 September)

Event Time Altitude Azimuth Distance (km) Brightness Sun altitude
Rises 05:05:08 0° 318° (NW) 2,864 7.9 -7.9°
Reaches altitude 10° 05:07:31 10° 308° (NW) 1,980 6.9 -7.5°
Maximum altitude 05:11:25 31° 246° (WSW) 1,126 5.4 -7.0°
Drops below altitude 10° 05:15:32 10° 185° (S) 2,091 6.9 -6.3°
Sets 05:18:07 0° 175° (S) 3,053 7.9 -5.9°
